Location: Marne
(34.0056°N, 117.9064°W)
Time: 04:22:27
(UTC+00:00)

Cosmos 1602 Rocket - Pass Details

Date: 18 January 2020
Orbit: 603 x 634 km, 82.5° (Epoch: 19 February)

Event Time Altitude Azimuth Distance (km) Brightness Sun altitude
Rises 01:34:36 0° 172° (S) 2,898 7.2 -6.1°
Reaches altitude 10° 01:36:54 10° 166° (SSE) 1,991 6.3 -6.5°
Maximum altitude 01:41:08 48° 93° (E) 819 3.8 -7.3°
Drops below altitude 10° 01:45:21 10° 19° (NNE) 1,986 5.8 -8.2°
Sets 01:47:38 0° 14° (NNE) 2,891 6.7 -8.6°
